"Pseudo-MPEC" for P10OWZ0

Created 2019 Jun 16 22:07:54 UT using Find_Orb

Click here for an explanation of pseudo-MPECs

 
 Astrometry: 
     P10OWZ0  C2019 05 07-SI%Vw*Zt\^^r=p*gMxe4j[Qp_o$F5ey^D/5(ice'G]E=]O^0'#xF51
     P10OWZ0  C2019 05 07r_OBDxk3?DKcT`kwJV%KmJC+S';[_n-DwOBvOg/H251@u=E3BqZFF51
     P10OWZ0  C2019 05 07:eu'5ZOBXLqUB2HT!3Nv5lv4G][;H56)JKXl]_=8aq[M?iNR%A0!F51
     P10OWZ0  C2019 05 27DxH[3c)HS3r$E^5TF,iMKYWQ[Sa\Q9*2MG;O(Y(@ufV)2s:hRpy)F51
     P10OWZ0  C2019 05 27Q,D3]7qoenGpwOjLpV\=Ov_[l8CE0(S'RrEq@joHZB5xR'wkbi)gF51
     P10OWZ0  C2019 05 27(BweOY=!$4AvR1lTF4r[fsgmp2/9oiZx1Xc:7on]lI^UoLM*8FK_F51
     P10OWZ0  C2019 05 27p]HdR7D*VmGMX=Apcv?!Qh'XLsYwXOZZ9fq8qsnilYgLvcEQn3XMF51
     P10OWZ0  C2019 05 30_Q,\/5piO6:gag5VQLXd9*`W)7KoxUF*k/@;RIAstrometryRFj9F52
     P10OWZ0  C2019 05 303%sjWEA9a\pjMAawtw$.-xI9!U`kIMKvq\BtW[59+YgL@d7a%EHWF52
     P10OWZ0  C2019 06 02H3XVX[])WUeredacted;yOC46swWru/7Y._70U$he\IIf'$+Z-(IF52
     P10OWZ0  C2019 06 02K?vvvtrw)cV7HGXKjwbnFNOJ3/1265/9e+g7\Km#n5t/2\WY0,]wF52
     P10OWZ0  C2019 06 07;om(_(kRHv@_3k:a=tRnid*Fw:R[lG*_OiB@Bjq)^aCdH:8NFa=eF51
     P10OWZ0  C2019 06 07k=b`owR=[clickkF%3A!W8=avX^:S,/ym9D[S9X_0nPWMRNujE6@F51
     P10OWZ0  C2019 06 07#u4]N@l'hsF[='409su-#,ZA^b=N-SHd(\H0Vn8xg^Y^?mIX@DfDF51
     P10OWZ0  C2019 06 11Pe4=\$jdiLk]09u/'3B?Rjh002P.b+NvH0lLTVo'0`u9^[T2pCB'F51
     P10OWZ0  C2019 06 11/MiLX=Z(o,\%=6[epNI+TO`fF]c'FjprHhu(pjhRojp_-+$WZMchF51
     P10OWZ0  C2019 06 11##/#here`r^`.Yfordv.FlR4y!YI;@T?whm:WJ=fMW8eTsQrp_rbF51
     P10OWZ0  C2019 06 11k`;lsd-9?Mk-@_explanationD#*K4v6,*c]VYv(vgi7ZbgVun!(F51
     P10OWZ0 ^C2019 06 12h`G2=+7R\M^@kvwJL%:HlNeHoACdv%,6sTf0`8xB)t?S!y.;GC28695
     P10OWZ0 ^C2019 06 12-EV)$c@_\tKF4M^2Igaiubh)W5]_l/^I9f3!aHu---WNHI0hRgWi695
     P10OWZ0 ^C2019 06 12AYN4if7\]Wo^YV?[QLh8]=a]fKKsm]b4pk919unpD-OLe+RSx6J_695

Station data:
(695) Kitt Peak  (N31.958398 W111.594670)  US/Arizona.
(F51) Pan-STARRS 1, Haleakala  (N20.707235 W156.255910)  US/Hawaii.
   Observers N. Primak, A. Schultz, S. Watters, J. Thiel, T. Goggia. Measurer
   PS1 Science Consortium. 1.8-m Ritchey-Chrétien + CCD.
(F52) Pan-STARRS 2, Haleakala  (N20.707384 W156.255910)  US/Hawaii. 1.8-m
   Ritchey-Chrétien + CCD.

Orbital elements:  P10OWZ0
   Perihelion 2019 Jul 22.471177 +/- 0.000841 TT = 11:18:29 (JD 2458686.971177)
Epoch 2019 Jun 12.0 TT = JDT 2458646.5   Earth MOID: 0.0709   AutoNEOCP
M 347.30940955 +/- 0.007            (J2000 ecliptic)
n   0.31357107 +/- 0.000204         Peri.  206.30545 +/- 0.0051
a   2.14574801 +/- 0.000929         Node    93.05901 +/- 0.0021
e   0.5018132 +/- 0.000222          Incl.    8.41749 +/- 0.0024
P   3.14                   H 24.2   G  0.15   U  7.0  
q 1.06898318 +/- 1.68e-5    Q 3.22251285 +/- 0.00188
From 21 observations 2019 May 7-June 12; mean residual 0".17
Residuals in arcseconds: 
190507 F51  .03+  .17+    190530 F52  .09-  .04+    190611 F51  .07+  .19-    
190507 F51  .49-  .39-    190530 F52  .14-  .03-    190611 F51  .06+  .06+    
190507 F51  .43+  .23+    190602 F52  .01-  .02+    190611 F51  .16+  .25-    
190527 F51  .05+  .00     190602 F52  .06+  .12+    190611 F51  .12+  .17-    
190527 F51  .09+  .14-    190607 F51  .00   .01+    190612 695  .11-  .28+    
190527 F51  .12+  .04+    190607 F51  .11-  .13+    190612 695  .02+  .12-    
190527 F51  .00   .06-    190607 F51  .00   .09-    190612 695  .17-  .21+    

Ephemerides (geocentric):
Date (UTC) HH   RA              Dec         delta   r     elong  mag " sig PA
---- -- -- --  -------------   -----------  ------ ------ -----  --- ---- ---
2019 06 16 22  16 08 54.552   -08 11 51.82  .14366 1.1463 153.6 21.4 1.03   6
2019 06 16 23  16 08 55.532   -08 13 54.37  .14349 1.1462 153.6 21.4 1.04   6
2019 06 17 00  16 08 56.519   -08 15 57.28  .14331 1.1460 153.6 21.4 1.06   6
2019 06 17 01  16 08 57.514   -08 18 00.55  .14313 1.1458 153.6 21.4 1.07   6
2019 06 17 02  16 08 58.517   -08 20 04.19  .14295 1.1456 153.6 21.4 1.09   6
2019 06 17 03  16 08 59.528   -08 22 08.20  .14277 1.1455 153.5 21.4 1.10   6
2019 06 17 04  16 09 00.547   -08 24 12.57  .14260 1.1453 153.5 21.4 1.11   6
2019 06 17 05  16 09 01.573   -08 26 17.31  .14242 1.1451 153.5 21.4 1.13   6
2019 06 17 06  16 09 02.608   -08 28 22.42  .14224 1.1450 153.5 21.4 1.14   6
2019 06 17 07  16 09 03.650   -08 30 27.89  .14206 1.1448 153.5 21.4 1.16   6
2019 06 17 08  16 09 04.700   -08 32 33.74  .14189 1.1446 153.5 21.4 1.17   6
2019 06 17 09  16 09 05.758   -08 34 39.96  .14171 1.1445 153.5 21.4 1.19   6
2019 06 17 10  16 09 06.824   -08 36 46.56  .14153 1.1443 153.5 21.4 1.20   6
2019 06 17 11  16 09 07.899   -08 38 53.52  .14135 1.1441 153.5 21.4 1.22   6
2019 06 17 12  16 09 08.981   -08 41 00.86  .14118 1.1440 153.5 21.4 1.24   6
2019 06 17 13  16 09 10.071   -08 43 08.58  .14100 1.1438 153.4 21.4 1.25   6
2019 06 17 14  16 09 11.170   -08 45 16.67  .14083 1.1436 153.4 21.4 1.27   6
2019 06 17 15  16 09 12.276   -08 47 25.14  .14065 1.1434 153.4 21.4 1.28   6
2019 06 17 16  16 09 13.391   -08 49 33.99  .14047 1.1433 153.4 21.4 1.30   6
2019 06 17 17  16 09 14.514   -08 51 43.22  .14030 1.1431 153.4 21.4 1.32   6
2019 06 17 18  16 09 15.646   -08 53 52.83  .14012 1.1429 153.4 21.4 1.33   5
2019 06 17 19  16 09 16.786   -08 56 02.82  .13995 1.1428 153.4 21.4 1.35   5
2019 06 17 20  16 09 17.934   -08 58 13.20  .13977 1.1426 153.4 21.4 1.37   5
2019 06 17 21  16 09 19.090   -09 00 23.95  .13959 1.1424 153.4 21.3 1.38   5
2019 06 17 22  16 09 20.255   -09 02 35.09  .13942 1.1423 153.3 21.3 1.40   5
2019 06 17 23  16 09 21.428   -09 04 46.62  .13924 1.1421 153.3 21.3 1.42   5
2019 06 18 00  16 09 22.610   -09 06 58.53  .13907 1.1419 153.3 21.3 1.43   5
2019 06 18 01  16 09 23.800   -09 09 10.84  .13889 1.1418 153.3 21.3 1.45   5
2019 06 18 02  16 09 24.999   -09 11 23.53  .13872 1.1416 153.3 21.3 1.47   5
2019 06 18 03  16 09 26.206   -09 13 36.60  .13854 1.1414 153.3 21.3 1.49   5
2019 06 18 04  16 09 27.422   -09 15 50.07  .13837 1.1413 153.3 21.3 1.50   5
2019 06 18 05  16 09 28.646   -09 18 03.94  .13820 1.1411 153.3 21.3 1.52   5
2019 06 18 06  16 09 29.880   -09 20 18.19  .13802 1.1409 153.3 21.3 1.54   5
2019 06 18 07  16 09 31.122   -09 22 32.84  .13785 1.1408 153.3 21.3 1.56   5
2019 06 18 08  16 09 32.372   -09 24 47.88  .13767 1.1406 153.2 21.3 1.58   5
2019 06 18 09  16 09 33.632   -09 27 03.32  .13750 1.1404 153.2 21.3 1.60   5
2019 06 18 10  16 09 34.900   -09 29 19.16  .13733 1.1403 153.2 21.3 1.61   5
2019 06 18 11  16 09 36.177   -09 31 35.39  .13715 1.1401 153.2 21.3 1.63   5
2019 06 18 12  16 09 37.463   -09 33 52.02  .13698 1.1399 153.2 21.3 1.65   5
2019 06 18 13  16 09 38.758   -09 36 09.05  .13681 1.1398 153.2 21.3 1.67   5
2019 06 18 14  16 09 40.062   -09 38 26.49  .13663 1.1396 153.2 21.3 1.69   5
2019 06 18 15  16 09 41.375   -09 40 44.32  .13646 1.1395 153.2 21.3 1.71   4
2019 06 18 16  16 09 42.697   -09 43 02.56  .13629 1.1393 153.2 21.3 1.73   4
2019 06 18 17  16 09 44.027   -09 45 21.20  .13611 1.1391 153.2 21.3 1.75   4
2019 06 18 18  16 09 45.367   -09 47 40.25  .13594 1.1390 153.1 21.3 1.77   4
2019 06 18 19  16 09 46.717   -09 49 59.71  .13577 1.1388 153.1 21.3 1.79   4
2019 06 18 20  16 09 48.075   -09 52 19.57  .13560 1.1386 153.1 21.3 1.81   4
2019 06 18 21  16 09 49.442   -09 54 39.84  .13543 1.1385 153.1 21.3 1.83   4